Location: Marcé
(47.5801°N, 0.3280°W)
Time: 22:58:22
(UTC+01:00)

Transit 2A - Pass Details

Date: 02 December 2021
Orbit: 591 x 967 km, 66.7° (Epoch: 23 January)

Event Time Altitude Azimuth Distance (km) Brightness Sun altitude
Rises 05:59:01 0° 308° (NW) 3,562 - -24.6°
Reaches altitude 10° 06:03:14 10° 335° (NNW) 2,674 - -23.9°
Exits shadow 06:04:26 12° 346° (NNW) 2,541 8.5 -23.7°
Maximum altitude 06:06:00 13° 1° (N) 2,483 8.6 -23.4°
Drops below altitude 10° 06:08:49 10° 28° (NNE) 2,712 9.0 -23.0°
Sets 06:13:09 0° 55° (NE) 3,660 10.2 -22.2°
